Torna al catalogo

BREEZE-M DEB

AttivoHEO
NORAD 43407·DEBRIS·🇷🇺 Russia

Lanciato Apr 15, 2013 da Baikonur Cosmodrome

Loading…

Prossimi Passaggi (prossime 24 ore)

TLE

AggiornatoSource: Space-Track

Epoca: Sep 12, 2026, 10:06 UTC

1 43407U 13014D   26255.42120973 -.00000156  00000-0  00000-0 0  9998
2 43407  15.6487 345.7357 4842536 246.5037  56.3982  1.91516937 77036

Traccia BREEZE-M DEB in tempo reale con AllMySat

Download on the App Store